Change the Weather History Date:

Tuesday, August 20, 2013

  Actual Average Record
Temperature  
Mean Temperature 71 °F 67 °F  
Max Temperature 80 °F 78 °F 88 °F (1955)
Min Temperature 62 °F 56 °F 39 °F (2000)
Degree Days  
Heating Degree Days 0 2  
Month to date heating degree days 22 21  
Since 1 June heating degree days 136 154  
Since 1 July heating degree days 33 47  
Cooling Degree Days 6 3  
Month to date cooling degree days 48 81  
Year to date cooling degree days 378 293  
Since 1 June cooling degree days 346 282  
Growing Degree Days 21 (Base 50)    
Moisture  
Dew Point 62 °F    
Average Humidity 74    
Maximum Humidity 93    
Minimum Humidity 54    
Precipitation  
Precipitation 0.00 in 0.10 in 0.90 in (1958)
Month to date precipitation 1.70 2.05  
Year to date precipitation 21.41 20.70  
Sea Level Pressure  
Sea Level Pressure 30.07 in    
Wind  
Wind Speed 6 mph (SSW)    
Max Wind Speed 15 mph    
Max Gust Speed 22 mph    
Visibility 10 miles    
Events      
T = Trace of Precipitation, MM = Missing Value Source: NWS Daily Summary

Daily Weather History Graph

Daily Weather History Graph

Search for Another Location

Airport or City:

Trip Planner

Search our weather history database for the weather conditions in past years. The results will help you decide how hot, cold, wet, or windy it might be!

Date:

Astronomy

Aug. 20, 2013 Rise Set
Actual Time 6:13 AM EDT 8:00 PM EDT
Civil Twilight 5:43 AM EDT 8:30 PM EDT
Nautical Twilight 5:05 AM EDT 9:08 PM EDT
Astronomical Twilight 4:25 AM EDT 9:48 PM EDT
Moon 7:27 PM EDT (8/20) 5:42 AM EDT (8/20)
Length of Visible Light 14h 47m
Length of Day
13h 46m
Full, 100% of the Moon is Illuminated
Aug 20
Full
Aug 20
Full
Aug 28
Last Quarter
Sep 5
New
Sep 12
First Quarter

Hourly Weather History & Observations

Time (EDT) Temp. Heat Index Dew Point Humidity Pressure Visibility Wind Dir Wind Speed Gust Speed Precip Events Conditions
12:56 AM 64.0 °F - 59.0 °F 84% 30.02 in 10.0 mi South 4.6 mph - N/A   Clear
1:56 AM 64.0 °F - 57.9 °F 80% 30.02 in 10.0 mi South 3.5 mph - N/A   Clear
2:56 AM 64.0 °F - 57.0 °F 78% 30.02 in 10.0 mi South 5.8 mph - N/A   Clear
3:56 AM 62.1 °F - 57.0 °F 84% 30.03 in 10.0 mi Calm Calm - N/A   Partly Cloudy
4:56 AM 63.0 °F - 59.0 °F 87% 30.04 in 10.0 mi SW 4.6 mph - N/A   Clear
5:56 AM 63.0 °F - 60.1 °F 90% 30.04 in 10.0 mi South 5.8 mph - N/A   Clear
6:56 AM 64.0 °F - 60.1 °F 87% 30.07 in 8.0 mi SW 3.5 mph - N/A   Clear
7:56 AM 66.0 °F - 62.1 °F 87% 30.08 in 10.0 mi SSW 5.8 mph - N/A   Clear
8:56 AM 70.0 °F - 64.9 °F 84% 30.08 in 10.0 mi South 6.9 mph - N/A   Clear
9:56 AM 73.0 °F - 66.0 °F 79% 30.09 in 10.0 mi SW 10.4 mph - N/A   Scattered Clouds
10:04 AM 73.4 °F - 66.2 °F 78% 30.10 in 10.0 mi SW 10.4 mph - N/A   Mostly Cloudy
10:24 AM 73.4 °F - 66.2 °F 78% 30.10 in 10.0 mi SW 10.4 mph - N/A   Mostly Cloudy
10:56 AM 75.0 °F - 66.0 °F 73% 30.09 in 10.0 mi SW 11.5 mph - N/A   Scattered Clouds
11:56 AM 77.0 °F - 66.0 °F 69% 30.09 in - North - - N/A   Clear
12:56 PM 78.1 °F - 64.9 °F 64% 30.10 in 10.0 mi SW 12.7 mph 19.6 mph 0.01 in   Clear
1:56 PM 80.1 °F 81.7 °F 64.0 °F 58% 30.09 in 10.0 mi SW 12.7 mph - N/A   Clear
2:56 PM 79.0 °F - 64.9 °F 62% 30.09 in 10.0 mi SW 10.4 mph - N/A   Clear
3:56 PM 80.1 °F 81.2 °F 62.1 °F 54% 30.08 in 10.0 mi SW 11.5 mph - N/A   Clear
4:56 PM 80.1 °F 81.2 °F 62.1 °F 54% 30.07 in 10.0 mi SW 11.5 mph - N/A   Clear
5:56 PM 79.0 °F - 61.0 °F 54% 30.07 in 10.0 mi SW 10.4 mph - N/A   Clear
6:56 PM 77.0 °F - 61.0 °F 58% 30.07 in 10.0 mi SW 6.9 mph - N/A   Clear
7:56 PM 73.0 °F - 61.0 °F 66% 30.07 in 10.0 mi South 3.5 mph - N/A   Clear
8:56 PM 71.1 °F - 61.0 °F 70% 30.07 in 10.0 mi South 3.5 mph - N/A   Clear
9:56 PM 69.1 °F - 60.1 °F 73% 30.09 in 10.0 mi South 3.5 mph - N/A   Clear
10:56 PM 68.0 °F - 60.1 °F 76% 30.09 in 10.0 mi Calm Calm - N/A   Clear
11:56 PM 68.0 °F - 59.0 °F 73% 30.09 in 10.0 mi Variable 3.5 mph - N/A   Clear